Weather History for Puebla, Mexico

Change the Weather History Date:

Tuesday, September 17, 2013

  Actual Average Record
Temperature  
Mean Temperature 62 °F -  
Max Temperature 70 °F 70 °F 80 °F (2011)
Min Temperature 55 °F 52 °F 48 °F (2001)
Degree Days  
Heating Degree Days 2    
Growing Degree Days 12 (Base 50)    
Moisture  
Dew Point 57 °F    
Average Humidity 83    
Maximum Humidity 100    
Minimum Humidity 47    
Precipitation  
Precipitation 0.16 in - - ()
Sea Level Pressure  
Sea Level Pressure 30.13 in    
Wind  
Wind Speed 3 mph ()    
Max Wind Speed 16 mph    
Max Gust Speed -    
Visibility 5.4 miles    
Events Rain    
Averages and records for this station are not official NWS values.
T = Trace of Precipitation, MM = Missing Value Source: Averaged Metar Reports

Daily Weather History Graph

Daily Weather History Graph

Search for Another Location

Airport:

Trip Planner

Search our weather history database for the weather conditions in past years. The results will help you decide how hot, cold, wet, or windy it might be!

Date:

Astronomy

Sep. 17, 2013 Rise Set
Actual Time 7:21 AM CDT 7:33 PM CDT
Civil Twilight 6:59 AM CDT 7:55 PM CDT
Nautical Twilight 6:34 AM CDT 8:21 PM CDT
Astronomical Twilight 6:08 AM CDT 8:46 PM CDT
Moon 6:15 PM CDT (9/17) 5:29 AM CDT (9/17)
Length of Visible Light 12h 56m
Length of Day
12h 12m
Waxing Gibbous, 96% of the Moon is Illuminated
Sep 17
Waxing Gibbous
Sep 19
Full
Sep 26
Last Quarter
Oct 4
New
Oct 11
First Quarter

Hourly Weather History & Observations

Time (CDT) Temp. Dew Point Humidity Pressure Visibility Wind Dir Wind Speed Gust Speed Precip Events Conditions
3:58 AM 57 °F 55 °F 91% 29.81 in 3 mi Calm Calm - -   Mostly Cloudy
6:02 AM 55.4 °F 55.4 °F 100% 30.25 in 2.0 mi Calm Calm - N/A   Light Drizzle
6:45 AM 55.4 °F 55.4 °F 100% 30.25 in 1.0 mi Calm Calm - N/A   Overcast
7:42 AM 55.4 °F 55.4 °F 100% 30.27 in 1.5 mi NE 4.6 mph - N/A   Overcast
8:40 AM 57.2 °F 55.4 °F 94% 30.28 in 5.0 mi North 5.8 mph - N/A   Overcast
9:43 AM 59.0 °F 55.4 °F 88% 30.29 in 8.0 mi NNE 8.1 mph - N/A   Mostly Cloudy
9:50 AM 61 °F 55 °F 73% 29.85 in 6 mi Calm Calm - -   Overcast
10:41 AM 62.6 °F 55.4 °F 77% 30.30 in 8.0 mi North 2.3 mph - N/A   Mostly Cloudy
11:45 AM 68.0 °F 57.2 °F 68% 30.28 in 8.0 mi NE 3.5 mph - N/A   Mostly Cloudy
12:42 PM 69.8 °F 59.0 °F 68% 30.26 in 8.0 mi SE 6.9 mph - N/A   Mostly Cloudy
12:50 PM 68 °F 52 °F 47% 29.83 in 3 mi SE 2.2 mph - -   Overcast
1:43 PM 69.8 °F 59.0 °F 68% 30.23 in 7.0 mi South 12.7 mph - N/A   Mostly Cloudy
2:49 PM 68.0 °F 59.0 °F 73% 30.20 in 7.0 mi South 16.1 mph - N/A   Mostly Cloudy
3:45 PM 66.2 °F 55.4 °F 68% 30.19 in 7.0 mi SW 10.4 mph - N/A   Overcast
3:50 PM 69 °F 54 °F 50% 29.71 in 12 mi SSE 2.2 mph - -   Overcast
4:21 PM 64.4 °F 59.0 °F 83% 30.19 in 6.0 mi SSW 8.1 mph - N/A Rain Light Rain
4:40 PM 62.6 °F 59.0 °F 88% 30.19 in 6.0 mi SSW 8.1 mph - N/A Rain Rain
5:44 PM 62.6 °F 59.0 °F 88% 30.19 in 5.0 mi SSE 4.6 mph - N/A Rain Light Rain
6:42 PM 60.8 °F 59.0 °F 94% 30.20 in 4.0 mi NW 4.6 mph - N/A Rain Light Rain
6:50 PM 63 °F 59 °F 82% 29.69 in 3 mi Calm Calm - - Rain Light Drizzle
7:47 PM 59.0 °F 57.2 °F 94% 30.22 in 5.0 mi North 3.5 mph - N/A   Overcast
8:46 PM 59.0 °F 57.2 °F 94% 30.24 in 5.0 mi WNW 3.5 mph - N/A Rain Light Rain
9:44 PM 59.0 °F 57.2 °F 94% 30.26 in 5.0 mi WNW 2.3 mph - N/A   Overcast
9:58 PM 62 °F 58 °F 84% 29.72 in 3 mi Calm Calm - -   Mostly Cloudy
10:49 PM 57.2 °F 55.4 °F 94% 30.27 in 5.0 mi North 4.6 mph - N/A   Overcast
11:43 PM 57.2 °F 57.2 °F 100% 30.27 in 6.0 mi NNW 2.3 mph - N/A   Overcast